SCP
0 0 0 0 0 0 0 0 0 0 0 0 0 0 0 0 0 0 0 0 0 0 0 0 0 0 0 0 0 0 0 0 0 0 0 0 0 0 0 0 0 0 0
0 0 0 0 0 0 0 0 0 0 0 0 0 0 0 0 0 0 0 0 0 0 0 0 0 0 0 0 0 0 0 0 0 0 0 0 0 0 0 0 0 0 0
0 0 0 0 0 0 0 0 0 0 0 0 0 0 0 0 0 0 0 0 0 0 0 0 0 0 0 0 0 0 0 0 0 0 0 0 0 0 0 0 0 0 0
0 0 0 0 0 0 0 0 0 0 0 0 0 0 0 0 0 0 0 0 0 0 0 0 0 0 0 0 0 0 0 0 0 0 0 0 0 0 0 0 0 0 0
0 0 0 0 0 0 0 0 0 0 0 0 0 0 0 0 -0 0 0 0 0 0 0 0 0 0 0 0 0 0 0 0 0 0 0 0 0 0 0 0 0 0 0
0 0 0 0 0 0 0 0 0 0 0 0 0 0 0 0 -0 0 0 0 0 0 0 0 0 0 0 0 0 0 0 0 0 0 0 0 0 0 0 0 0 0 0
0 0 0 0 0 0 0 0 0 0 0 0 0 0 0 0 -0 0 0 0 0 0 0 0 0 0 0 0 0 0 0 0 0 0 0 0 0 0 0 0 0 0 0
0 0 0 0 0 0 0 0 0 0 0 0 0 0 0 0 0 0 0 0 0 0 0 0 0 0 0 0 0 0 0 0 0 0 0 0 0 0 0 0 0 0 0
0 0 0 0 0 0 0 0 0 0 0 0 0 0 0 0 0 0 0 0 0 0 0 0 0 0 0 0 0 0 0 0 0 0 0 0 0 0 0 0 0 0 0
0 0 0 0 0 0 0 0 0 0 0 0 0 0 0 0 0 0 0 0 0 0 0 0 0 0 0 0 0 0 0 0 0 0 0 0 0 0 0 0 0 0 0
0 0 0 0 0 0 0 0 0 0 0 0 0 0 0 0 0 0 0 0 0 0 0 0 0 0 0 0 0 0 0 0 0 0 0 0 0 0 0 0 0 0 0
0 0 0 0 0 0 0 0 0 0 0 0 0 0 0 0 0 0 0 0 0 0 0 0 0 0 0 0 0 0 0 0 0 0 0 0 0 0 0 0 0 0 0
0 0 0 0 0 0 0 0 0 0 0 0 0 0 0 0 0 0 0 0 0 0 0 0 0 0 0 0 0 0 0 0 0 0 0 0 0 0 0 0 0 0 0
0 0 0 0 0 0 -0 -0 -0 -0 -0 -0 -0 0 0 0 0 0 0 0 0 0 0 0 0 0 0 0 0 0 0 0 0 0 0 0 0 0 0 0 0 0 0
0 0 0 0 0 -0 0 -0 0 -0 -0 -0 -0 0 0 0 0 0 0 0 0 0 0 0 0 0 0 -0 0 0 0 0 0 0 0 0 0 0 0 0 0 0 0
0 0 -0 -0 -0 -0 -0 0 0 -0 -0 -0 -0 0 0 0 0 0 0 0 0 0 0 0 0 0 0 -0 0 0 0 0 0 0 0 0 0 0 0 0 0 0 0
0 0 0 0 0 -0 0 0 0 0 0 0 0 0 0 0 0 0 0 0 0 0 0 0 0 0 0 -0 0 0 0 0 0 0 0 0 0 0 0 0 0 0 0
0 0 0 0 0 -0 0 0 0 0 0 0 0 0 0 0 0 0 0 0 0 0 0 0 0 0 0 -0 -0 -0 0 0 0 0 0 0 0 -0 -0 -0 0 0 0
0 0 0 0 0 0 0 0 0 0 0 0 0 0 -0 -0 -0 -0 -0 0 0 0 0 0 0 0 0 0 0 0 0 0 0 0 0 0 -0 -0 -0 -0 -0 0 0
0 0 0 0 0 0 0 0 0 0 0 0 0 0 0 0 0 0 -0 0 0 0 0 0 0 0 0 0 0 0 0 0 0 0 0 0 -0 -0 -0 -0 -0 -0 -0
0 0 0 0 0 -0 0 0 0 0 0 0 0 0 0 0 0 0 -0 0 0 0 0 0 0 0 0 0 0 0 0 -0 -0 0 0 0 0 -0 -0 -0 0 0 0
0 0 0 0 0 -0 0 0 0 0 0 0 0 0 0 0 0 0 0 0 0 0 0 0 0 0 0 0 0 0 0 0 0 0 0 0 -0 -0 0 0 0 0 0
-0 -0 0 0 -0 -0 0 0 0 -0 0 0 0 0 0 0 0 0 0 0 0 0 0 0 0 0 0 0 0 0 0 0 0 0 0 0 0 0 0 0 0 0 0
0 0 0 0 0 0 0 -0 -0 -0 0 0 0 0 0 0 0 0 0 0 0 0 0 0 0 0 0 0 0 0 0 0 0 0 0 0 0 0 0 0 0 0 0
0 0 0 0 0 0 0 -0 -0 -0 0 0 0 0 0 0 0 0 0 0 0 0 0 0 0 0 0 0 0 0 0 0 0 0 0 0 0 0 0 0 0 0 0
0 0 0 0 0 0 0 0 0 0 0 0 0 0 0 0 0 0 0 0 0 0 0 0 0 0 0 0 0 0 0 0 0 0 0 0 0 0 0 0 0 0 0
Wind_Speed
8 8 9 9 9 9 9 9 8 8 8 9 8 9 9 9 8 9 9 9 10 9 8 9 9 7 6 5 5 5 5 5 7 3 2 2 2 2 2 1 1 1 2
8 9 9 9 9 9 9 9 8 9 9 8 8 9 9 9 8 9 10 10 10 10 9 9 9 7 8 6 6 6 5 5 7 6 3 3 3 2 2 2 2 2 2
8 9 9 9 9 9 9 8 8 9 9 9 9 9 9 9 9 9 10 10 10 9 9 9 8 9 9 6 7 7 6 6 5 6 3 2 2 2 2 2 2 3 2
8 9 9 9 9 8 8 8 8 8 9 9 9 9 8 8 9 9 10 10 10 10 9 9 8 8 7 7 7 7 7 7 6 5 4 3 2 2 2 2 2 2 2
8 9 8 8 8 8 8 8 8 8 9 8 9 9 8 7 7 8 8 9 9 9 9 9 9 10 10 7 6 6 7 6 5 5 3 2 2 2 2 2 2 2 1
8 8 7 8 8 8 8 8 8 8 8 9 9 8 8 6 9 11 9 8 8 8 8 8 9 10 12 12 11 9 7 6 5 3 2 2 1 1 1 1 1 2 2
7 7 7 7 8 7 8 8 8 8 8 9 8 8 8 8 11 12 12 8 8 8 7 7 7 7 8 8 10 12 10 8 5 4 3 2 1 1 1 0 0 1 2
6 6 6 7 7 7 8 8 7 6 6 6 7 7 7 8 11 12 12 9 9 8 7 7 7 7 6 6 7 7 6 5 4 2 2 2 2 2 2 1 1 2 3
6 6 6 6 7 7 7 6 5 5 6 6 5 7 7 7 9 10 9 7 7 7 7 7 6 6 7 7 7 6 5 4 4 3 1 3 4 4 4 2 1 1 2
5 5 5 6 6 6 6 5 4 5 6 6 7 7 7 6 8 9 8 5 6 4 4 5 7 7 6 6 5 4 4 3 4 3 3 3 2 0 5 4 2 1 1
5 6 6 5 5 5 5 5 5 6 6 6 7 7 7 7 7 9 8 4 4 3 3 3 3 6 5 4 3 2 0 1 2 2 2 3 2 2 1 2 3 3 2
6 6 5 4 4 5 6 5 5 6 6 5 5 6 5 6 7 7 9 7 4 3 2 2 3 4 4 3 2 1 2 2 2 2 2 3 3 3 3 3 3 5 6
6 6 5 5 5 5 5 5 4 4 4 3 4 4 4 4 5 8 9 8 6 3 1 3 3 4 4 4 5 5 3 2 2 2 2 2 2 3 3 3 2 2 4
6 5 4 5 5 5 4 3 4 3 3 3 3 3 2 3 3 3 3 3 4 3 3 4 5 6 5 4 4 4 3 2 2 2 2 2 3 2 2 3 3 3 3
5 5 5 5 5 5 5 4 3 2 1 3 2 2 2 2 1 2 2 2 2 2 2 2 3 3 4 4 3 3 3 3 3 2 2 2 3 3 3 2 2 2 2
5 4 4 4 4 4 4 4 8 5 4 4 4 4 1 1 1 2 3 3 3 2 3 2 2 2 2 3 3 3 3 3 3 2 2 2 3 3 3 2 2 2 3
6 5 4 3 3 3 3 3 3 5 7 6 4 3 2 1 1 3 3 4 4 3 3 2 1 1 1 2 2 2 2 2 2 2 2 2 3 2 2 3 3 2 3
5 5 4 3 3 2 2 2 2 2 2 2 3 1 0 1 2 2 2 2 3 3 1 1 1 1 1 1 1 1 1 2 2 2 2 3 3 3 3 3 3 3 3
5 3 3 3 3 2 2 2 2 2 1 0 1 2 2 1 2 3 2 1 1 1 1 1 1 1 1 1 1 1 1 2 2 2 2 3 3 3 3 3 3 4 3
3 5 4 3 2 2 2 1 1 1 1 1 1 1 1 1 1 1 1 0 0 1 1 1 1 1 1 1 1 1 1 1 2 2 2 3 3 3 3 4 4 4 3
3 3 5 3 2 2 2 2 2 2 2 2 2 2 3 1 1 1 1 1 1 2 1 1 1 1 1 1 1 1 1 1 2 2 3 3 3 3 3 3 4 3 4
4 3 3 2 2 2 2 2 2 2 2 2 2 2 2 2 2 2 2 2 2 2 2 2 2 2 1 2 2 2 2 2 2 2 3 3 3 3 4 3 4 3 3
4 3 2 2 2 2 1 1 2 2 2 2 2 2 1 2 2 3 3 3 2 2 2 2 3 2 2 2 2 2 3 3 2 2 3 3 3 3 4 4 5 4 4
4 3 3 2 2 2 2 2 2 2 3 3 3 2 2 3 3 3 3 3 3 3 3 3 4 5 5 3 3 3 3 3 3 3 4 4 4 4 4 4 4 5 4
4 3 3 3 3 3 3 3 3 3 3 3 3 3 3 3 3 4 4 3 4 4 5 4 4 5 7 7 6 5 4 5 4 3 3 4 5 5 5 5 4 5 4
4 4 4 3 3 3 3 3 3 4 4 4 4 4 4 4 4 4 4 4 4 4 5 5 6 7 8 7 7 7 6 6 5 5 4 4 5 5 5 4 6 5 5
Wind_Direction
49 56 61 61 62 64 65 63 64 62 60 63 63 63 63 61 62 68 69 69 71 67 64 70 68 69 78 78 85 88 88 102 113 102 78 69 77 56 25 7 334 315 306
54 61 61 61 61 63 63 61 63 63 60 61 64 64 64 62 61 67 69 67 69 68 65 68 67 74 73 72 79 83 85 90 117 115 77 53 52 36 22 15 11 8 346
62 67 65 62 62 63 63 61 62 65 63 60 62 64 62 62 63 65 69 69 67 65 64 67 66 75 74 74 78 82 84 86 90 105 87 56 51 35 36 25 16 4 1
67 69 67 64 66 66 65 63 61 64 66 65 63 62 61 63 66 69 71 70 68 63 60 61 62 71 79 82 82 85 90 89 90 95 89 65 51 30 44 28 11 3 354
74 72 71 71 70 68 65 63 63 62 64 65 66 60 57 59 66 75 73 73 70 65 57 54 58 67 73 78 92 96 99 97 96 93 85 70 47 38 35 6 2 338 341
77 75 72 73 72 68 66 65 64 61 58 60 59 61 57 57 70 77 80 72 67 65 60 53 54 54 62 69 80 86 95 105 107 99 95 96 66 37 13 11 3 359 338
81 79 77 76 77 75 76 70 65 60 60 59 54 60 60 56 70 78 77 76 67 60 56 54 55 48 55 67 67 65 64 74 99 124 129 154 183 200 181 41 348 293 286
88 86 83 83 82 80 77 74 68 63 62 60 54 57 62 56 72 81 80 75 69 61 56 58 63 49 51 72 76 68 59 51 57 90 165 204 218 207 195 205 274 280 277
91 93 91 91 89 84 81 76 70 71 65 59 54 54 60 50 65 82 83 76 69 58 52 52 58 57 54 72 78 71 55 27 23 24 264 250 246 229 190 172 183 344 333
97 97 93 91 91 91 90 82 74 76 72 68 60 51 56 51 59 77 82 81 73 59 45 40 45 51 53 68 77 74 52 7 357 7 21 21 24 42 186 197 209 221 281
101 98 90 88 94 97 90 87 91 87 78 69 64 52 47 44 52 67 76 82 86 70 47 24 13 20 40 64 90 91 32 336 6 21 25 22 29 41 79 215 219 217 229
100 95 87 80 87 99 97 91 91 92 85 72 67 54 40 35 41 55 66 74 81 77 43 355 335 0 40 56 63 55 81 86 59 44 36 17 5 356 342 324 257 231 238
95 90 85 79 76 89 103 106 94 88 90 80 76 67 40 29 34 46 51 53 56 59 5 352 11 39 53 50 49 55 66 67 57 46 24 353 328 313 314 323 331 292 260
103 95 86 86 81 73 76 91 106 110 105 100 95 87 57 34 26 21 21 24 29 32 16 18 38 51 54 51 46 40 41 43 48 30 352 329 324 334 350 353 348 345 337
105 100 92 88 93 84 72 59 83 88 162 143 137 127 110 68 345 350 7 360 350 354 25 38 35 30 30 27 29 31 30 35 37 16 359 353 354 356 353 347 342 338 334
113 106 103 101 95 95 96 75 50 58 85 119 132 135 115 173 261 360 7 3 7 62 75 57 40 30 27 18 12 10 18 21 13 3 4 2 355 349 345 349 343 334 325
131 130 122 117 114 106 98 99 79 44 57 74 95 117 133 160 346 356 10 34 50 73 71 62 39 13 5 1 1 2 2 360 355 5 9 2 351 346 348 349 348 337 327
131 137 136 136 131 121 111 106 106 99 66 24 21 23 349 306 325 341 16 52 45 41 47 35 360 338 332 335 345 355 358 0 9 13 13 5 358 347 344 344 342 332 321
136 136 133 133 133 130 121 114 108 104 105 38 343 336 344 345 12 29 52 65 51 14 3 342 314 306 311 320 334 345 351 358 2 359 1 356 350 342 338 334 330 328 320
137 147 139 136 136 137 140 143 147 155 182 226 258 267 309 6 351 355 26 129 229 274 289 289 293 286 285 307 331 339 348 353 351 347 342 339 335 329 326 325 325 326 319
133 141 143 139 152 165 170 179 187 194 212 235 252 250 226 228 259 276 277 252 248 256 259 255 251 256 260 260 278 296 309 321 324 323 324 325 325 323 319 313 312 315 314
139 143 151 158 165 176 184 189 193 210 233 251 274 286 229 216 240 253 254 254 251 244 236 232 239 239 240 246 251 262 281 295 304 310 313 316 317 318 318 319 322 321 324
147 149 152 161 171 180 184 195 204 216 238 255 264 266 245 231 240 246 251 256 251 241 226 219 233 242 239 237 237 243 261 278 287 289 300 310 316 320 322 322 325 326 329
163 168 172 178 183 192 210 227 227 230 240 251 252 250 249 245 245 248 249 250 246 243 232 225 233 242 245 240 233 236 243 254 261 267 279 290 300 308 312 314 316 320 318
178 182 186 194 203 210 217 230 237 241 247 250 250 249 248 244 245 249 248 243 242 245 245 237 235 241 247 246 243 243 242 247 248 253 263 272 285 294 300 305 309 313 314
192 197 200 200 207 213 218 229 239 242 247 251 250 247 245 244 247 250 248 241 239 243 247 244 240 240 244 247 249 247 244 247 251 251 253 263 276 284 295 293 301 302 304